OneWeb SL0492

operational
NORAD ID: 54114 Int'l Des: 2022-138 Owner: ONEWEBN Country: UK Constellation: oneweb
LEOCIRCULARPOLARONEWEB_TYPE

About OneWeb SL0492

Description loading...

Live Position

Loading 3D Globe...

Upcoming Passes

Altitude History

Altitude vs Time

uPlot chart will show altitude changes over time

Two-Line Element Set

1 54114U 22138B 25354.00477262 -.00000020 00000-0 -83516-4 0 9999
2 54114 87.9202 340.6241 0001717 79.0573 281.0753 13.19725084153209
Epoch: Dec 20, 2025 • Age: 14 hours

Current Status

Altitude 1188.7 km
Velocity 7.26 km/s
Sub-Earth Point 1.90°N, 135.22°W
Launch Date Oct 22, 2022
Age 3.1 years
Type internet

Technical Details

Classification Payload
Mass 148.00 kg
Dry Mass 140.00 kg
Total Mass 148.00 kg
Length 1.30 m
Diameter 1.00 m
Span 5.00 m
Shape Trapezoid+2 pan
Manufacturer ONEWUS
Bus Type ARROW
Phase Status In Orbit
Owner/State ONEWEBN/UK

Large Constellations

Loading constellations...